weather.gov     
National Weather Service

Regional Weather Roundup
NWS Homepage
This page is being discontinued on March 12, 2014.
The same data is available at this site. Please update your bookmarks.
Thank you, and we apologize for the inconvenience.
Please send an email to SR-SRH.Webmaster@noaa.gov with any concerns.


Current Version
Previous Version:    01  02  03  04  05  06  07  08  09  10  11  12  13  14  15  16  17  18  19  20  21  22  23  24  25  26  27  
[Printable]
830
ASUS45 KBOI 260510
RWRID
WEATHER ROUNDUP FOR IDAHO
NATIONAL WEATHER SERVICE BOISE ID
1100 PM MDT FRI JUL 25 2014

NOTE: "FAIR" INDICATES FEW OR NO CLOUDS BELOW 12000 FEET
WITH NO SIGNIFICANT WEATHER AND/OR OBSTRUCTIONS TO VISIBILITY

IDZ012-014-260600-
SOUTHWEST IDAHO


CITY           SKY/WX    TMP DP  RH WIND       PRES   REMARKS
BOISE          CLEAR     72  26  18 S3        30.00R
CALDWELL       CLEAR     64  37  36 NE5       30.01R
MOUNTAIN HOME  CLEAR     66  26  22 W9        30.01R
$$

IDZ016-017-260600-
SOUTHCENTRAL IDAHO


CITY           SKY/WX    TMP DP  RH WIND       PRES   REMARKS
BURLEY         CLEAR     61  41  47 W6        30.07R
JEROME         CLEAR     67  34  29 S5        30.06R
TWIN FALLS     CLEAR     70  27  20 SW12      30.07R
$$

IDZ019>023-260600-
SOUTHEAST IDAHO


CITY           SKY/WX    TMP DP  RH WIND       PRES   REMARKS
IDAHO FALLS    CLEAR     65  36  34 SW10      30.05R
POCATELLO      CLEAR     70  30  22 SW13      30.07R
REXBURG        CLEAR     69  30  23 S12       30.04R
$$

IDZ006-010-011-018-031-032-260600-
CENTRAL IDAHO MOUNTAINS


CITY           SKY/WX    TMP DP  RH WIND       PRES   REMARKS
MCCALL         CLEAR     64  35  34 N5        30.14R
HAILEY         PTCLDY    63  34  34 W7        30.12R
STANLEY          N/A     46  23  40 S5        30.22R
SALMON         CLEAR     70  36  28 N18       30.05R
CHALLIS        CLEAR     64  21  19 CALM      30.10R
$$

IDZ002-004-006-007-026-260600-
NORTHERN IDAHO


CITY           SKY/WX    TMP DP  RH WIND       PRES   REMARKS
LEWISTON       LGT RAIN  71  41  33 SE5       30.03R
LOWELL           N/A     61  49  64 N3        30.07R
COEUR D`ALENE  CLEAR     63  50  63 SE6       30.06R
MULLAN PASS    CLEAR     49  38  65 NW6       30.21S
$$




U.S. Dept. of Commerce
NOAA National Weather Service
1325 East West Highway
Silver Spring, MD 20910
E-mail: w-nws.webmaster@noaa.gov
Page last modified: May 16, 2007
NATIONAL WEATHER SERVICE: for Safety, for Work, for Fun - FOR LIFE